Location: Cuiry
(49.3858°N, 3.7708°E)
Time: 22:24:22
(UTC+00:00)

USA 238 - Pass Details

Date: 12 January 2026
Orbit: 883 x 1328 km, 63.4° (Epoch: 10 January)

Event Time Altitude Azimuth Distance (km) Brightness Sun altitude
Rises 16:46:22 0° 314° (NW) 3,865 6.9 -6.0°
Reaches altitude 10° 16:49:04 10° 321° (NW) 2,972 6.2 -6.4°
Maximum altitude 16:55:55 46° 33° (NNE) 1,561 4.2 -7.4°
Drops below altitude 10° 17:03:26 10° 105° (ESE) 3,258 5.8 -8.5°
Sets 17:06:30 0° 112° (ESE) 4,267 6.4 -9.0°
